Regional Weather Roundup
Issued by NWS

Home | Current Version | Previous Version | Text Only | Print | Product List | Glossary Off
Versions: 1 2 3 4 5 6 7 8 9 10 11 12 13 14 15 16 17 18 19 20 21 22 23 24 25 26 27 28 29 30 31 32 33 34 35 36 37 38 39 40 41 42 43 44 45 46 47 48 49 50

000
ASUS43 KDMX 280201
RWRIA

WEATHER ROUNDUP FOR IOWA
NATIONAL WEATHER SERVICE DES MOINES IA
900 PM CDT MON MAR 27 2017

NOTE: "FAIR" INDICATES FEW OR NO CLOUDS BELOW 12,000 FEET WITH NO
SIGNIFICANT WEATHER AND/OR OBSTRUCTIONS TO VISIBILITY.

* - THESE STATIONS ARE NOT NWS STATIONS...THUS NOT UNDER NWS
QUALITY CONTROL.  THEY ALSO DO NOT REPORT WEATHER SUCH
AS PRECIPITATION OR FOG.

IAZ001>003-012>014-020>022-031>034-043>046-280300-
   NORTHWEST IOWA

CITY           SKY/WX    TMP DP  RH WIND       PRES   REMARKS
CARROLL *      CLOUDY    46  45  93 N5        29.99R
CHEROKEE *     CLOUDY    47  40  76 NE3       30.00R
DENISON *      CLOUDY    46  39  76 NE5       30.00S
LE MARS *        N/A     46  39  76 E6        30.00R
ORANGE CITY *    N/A     43  39  87 SE3       29.99S
SHELDON *        N/A     43  37  81 SE6       29.98S
SIOUX CITY       N/A     46  40  79 E9        29.98R
SPENCER        CLOUDY    48  40  73 N3        30.00R
STORM LAKE *   CLOUDY    46  41  81 NE3       29.99R
$$

IAZ055>058-069>071-079>083-090>094-280300-
   SOUTHWEST IOWA

CITY           SKY/WX    TMP DP  RH WIND       PRES   REMARKS
ATLANTIC *     CLOUDY    48  41  76 N6        29.99R
AUDUBON *      CLOUDY    46  43  87 N5        29.99S
CLARINDA *     CLOUDY    48  46  93 CALM      30.00R
COUNCIL BLFS * CLOUDY    48  43  81 CALM      29.98S
CRESTON *      CLOUDY    46  43  87 NE8       29.98S
HARLAN  *      CLOUDY    46  43  87 NE6       30.02R
LAMONI         CLOUDY    48  43  82 N6        29.97R
RED OAK *      CLOUDY    48  43  81 N8        29.98R
SHENANDOAH *   CLOUDY    48  43  81 NW5       29.99R
$$

IAZ047>049-059>061-072>074-084-280300-
   CENTRAL IOWA

CITY           SKY/WX    TMP DP  RH WIND       PRES   REMARKS
AMES           CLOUDY    47  42  83 NE5       29.99R
ANKENY *       CLOUDY    48  41  76 N7        30.00R
BOONE *        CLOUDY    46  43  87 N8        29.98R
CHARITON *     CLOUDY    46  45  93 CALM      29.98R
DES MOINES     CLOUDY    49  40  71 N8        29.99R
GRINNELL*      CLOUDY    46  43  88 N5        29.98S
MARSHALLTOWN   CLOUDY    46  42  86 N3        29.97R
NEWTON *       CLOUDY    46  43  87 N6        29.97R
PELLA *        CLOUDY    48  43  84 NE3       29.99R
PERRY *        CLOUDY    46  42  86 NE3       29.99R
$$

IAZ004>006-015-016-023>025-035-036-280300-
   NORTH CENTRAL IOWA

CITY           SKY/WX    TMP DP  RH WIND       PRES   REMARKS
ALGONA *         N/A     46  43  87 E3        29.99S
CLARION *      CLOUDY    46  46 100 N6        29.99R
ESTHERVILLE      N/A     41  40  96 S5        29.98R
FORT DODGE *   CLOUDY    46  39  76 CALM      30.00R
MASON CITY       N/A     41  37  86 CALM      30.00R
FOREST CITY *    N/A     36  32  87 CALM      29.99R
WEBSTER CITY * CLOUDY    46  43  87 NW3       29.97R
IOWA FALLS *   CLOUDY    47  43  84 N3        29.99R
$$

IAZ007>011-017>019-026>030-037>042-050>054-066-280300-
   NORTHEAST IOWA

CITY           SKY/WX    TMP DP  RH WIND       PRES   REMARKS
CEDAR RAPIDS   CLOUDY    48  46  93 N5        29.96R
CHARLES CITY * CLOUDY    46  46 100 N5        29.99R
CLINTON *      CLOUDY    48  46  93 NE3       29.96R
DECORAH *      CLOUDY    45  43  93 VRB3      29.97R
DUBUQUE        CLOUDY    47  44  90 N6        29.97R
MONTICELLO *   CLOUDY    48  45  87 NE3       29.97R
OELWEIN *      CLOUDY    46  45  93 NE5       29.98R
WATERLOO       CLOUDY    47  41  80 N7        29.97R
$$

IAZ064-065-067-068-078-280300-
   EAST CENTRAL IOWA

CITY           SKY/WX    TMP DP  RH WIND       PRES   REMARKS
DAVENPORT      CLOUDY    49  45  86 NE5       29.95S
IOWA CITY      CLOUDY    52  45  77 N6        29.98R
MUSCATINE *    CLOUDY    50  46  87 N3        29.96R
QUAD CITIES    CLOUDY    51  45  79 N3        29.94S
$$

IAZ062-063-075>077-085>089-095>099-280300-
   SOUTHEAST IOWA

CITY           SKY/WX    TMP DP  RH WIND       PRES   REMARKS
BURLINGTON     CLOUDY    51  48  89 N7        29.94R
FAIRFIELD *    CLOUDY    50  46  87 N6        29.96R
FORT MADISON * CLOUDY    52  48  87 CALM      29.96R FOG
KEOKUK *       CLOUDY    52  48  87 CALM      29.94S
OSKALOOSA *    CLOUDY    47  45  91 N3        29.98R
CENTERVILLE *  CLOUDY    46  46 100 CALM      29.98R
OTTUMWA        CLOUDY    49  47  93 N5        29.96R
WASHINGTON *   CLOUDY    50  48  93 NW5       29.98R FOG
$$

ABBREVIATIONS USED IN REMARKS
   TC - TEMPERATURES IN CELSIUS
  WCI - WIND CHILL INDEX
   HX - HEAT INDEX
  VSB - VISIBILITY
$$





USA.gov is the U.S. government's official web portal to all federal, state and local government web resources and services.